Location: Spor
(46.2167°N, 11.0500°E)
Time: 23:22:34
(UTC+00:00)

STARLINK-1291 - Pass Details

Date: 07 June 2020
Orbit: 548 x 551 km, 53.0° (Epoch: 05 July)

Event Time Altitude Azimuth Distance (km) Brightness Sun altitude
Exits shadow 23:37:20 41° 117° (ESE) 806 4.2 -20.8°
Drops below altitude 10° 23:40:43 10° 69° (ENE) 1,818 6.6 -20.8°
Enters shadow 00:41:21 -62° 243° (WSW) 11,851 10.3 -18.3°
Maximum altitude 01:16:17 49° 339° (NNW) 711 4.4 -15.7°
